www.pogodaiklimat.ru

Погода и климат >> Архив погоды >> Финляндия >> Суомуссалми


ПОГОДА в Суомуссалми

  • Прогноз погоды в Суомуссалми
  • Монитор погоды в Суомуссалми

АРХИВ ПОГОДЫ в Суомуссалми

Время (UTC), дата Ветер
(напр.,м/с)
 
Видим.   Явления Облачность Т
(С)
Тd
(С)
f
(%)
Тe
(С)
Тes
(С)
Комфортность P
(гПа)
Po
(гПа)
Тmin
(С)
Tmax
(С)
R
(мм)
R24
(мм)
S
(см)
18 18.08 ЮВ 1-3
{4}
50 км ясно +13.7 +8.4 70 +14 +14 1012.8 986.3 +13.7 +21.7
21 18.08 Ю 1-3
{3}
50 км 1/0
[]
+9.2 +7.6 90 +9 +9 1012.7 985.7
00 19.08 В 1-1
{2}
45 км ясно +7.8 +6.9 94 +7 +7 1012.6 985.5
03 19.08 ЮВ 1-2
{3}
35 км ясно +7.8 +7.6 99 +7 +7 1011.5 984.4
06 19.08 ЮВ 2-5
{7}
45 км ясно +13.8 +10.6 81 +13 +17 1009.7 983.2 +5.7 +13.8
09 19.08 ЮВ 3-9
{9}
50 км 4/4
[]
+16.4 +11.4 72 +16 +20 1007.5 981.3
12 19.08 ЮВ 3-8
{9}
50 км в посл. час дождь {ливн. осадки} 9/0 2000 м
[]
+16.1 +11.7 75 +16 +19 1006.8 980.6
15 19.08 ЮВ 2-5
{6}
7000 м слаб. ливневой дождь 10/10 600 м
[]
+14.0 +13.5 97 +13 +13 1006.9 980.5 0.2
18 19.08 ЮВ 2-5
{6}
10 км слаб. дождь 10/10 100 м
[]
+14.4 +14.1 98 +14 +14 1007.1 980.7 +13.8 +17.1 1
21 19.08 ЮВ 1-2
{4}
5000 м дымка {дождь} 9/9 300 м
[]
+14.0 +13.8 99 +14 +14 1007.8 981.4
00 20.08 ЮЗ 1-3
{4}
18 км {дождь} 1/0 300 м
[]
+13.8 +13.3 97 +14 +14 1008.5 982.0
03 20.08 Ю 2-5
{5}
7000 м дымка 6/6 50 м
[]
+11.6 +11.4 99 +10 +10 1009.7 983.0
06 20.08 ЮЗ 2-5
{5}
40 км {дымка} 6/6 200 м
[]
+13.7 +11.9 89 +13 +14 1010.7 984.2 +11.3 +14.7
09 20.08 ЮЗ 4-9
{9}
40 км 1/0 600 м
[]
+17.7 +10.6 63 +17 +22 1011.2 985.0
12 20.08 Ю 4-8
{8}
45 км 6/1 1000 м
[]
+18.8 +10.4 58 +19 +22 1011.9 985.8
15 20.08 ЮЗ 3-7
{7}
40 км 4/0 2000 м
[]
+18.4 +9.8 57 +19 +20 1012.9 986.7
18 20.08 Ю 2-4
{7}
50 км 9/9 2000 м
[]
+15.8 +10.6 71 +16 +16 1014.0 987.5 +13.3 +19.6
21 20.08 ЮВ 1-3
{4}
8000 м в посл. час дождь {ливн. осадки} ясно +10.6 +10.3 98 +10 +10 1015.7 988.7 0.3
00 21.08 ЮЗ 1-2
{3}
2400 м дымка {ливн. осадки, дождь} ясно +10.0 +9.8 99 +9 +9 1016.2 989.2
03 21.08 Ю 1-3
{3}
5000 м дымка ясно +7.8 +7.7 99 +7 +7 1016.9 989.7
06 21.08 Ю 2-6
{7}
27 км {дымка} 9/9 100 м
[]
+12.8 +11.7 93 +12 +12 1017.0 990.2 +7.7 +15.8 0.5
09 21.08 ЮЗ 4-7
{8}
35 км 1/0 600 м
[]
+17.1 +11.3 69 +17 +21 1016.8 990.5
12 21.08 З 2-10
{10}
5000 м дождь 9/6 300 м
[]
+15.4 +9.1 66 +15 +17 1016.9 990.3 1
15 21.08 СЗ 2-3
{9}
45 км 4/1 1000 м
[]
+14.9 +9.3 69 +15 +16 1017.2 990.6
18 21.08 ЮВ 1-2
{2}
8000 м в посл. час дождь 1/1 1500 м
[]
+11.2 +11.0 99 +11 +11 1017.6 990.6 +11.2 +19.5 5
21 21.08 Ю 1-3
{3}
800 м туман 1/0 2000 м
[]
+7.6 +7.5 99 +7 +7 1017.8 990.5
00 22.08 ЮЗ 1-1
{1}
400 м туман ясно +6.0 +5.9 99 +5 +5 1017.0 989.6
03 22.08 СВ 1-1
{2}
1200 м в посл. час туман 1/0 2000 м
[]
+5.0 +5.0 100 +3 +4 1017.0 989.5
06 22.08 З 2-3
{3}
35 км {туман, метель} ясно +11.8 +11.5 98 +11 +14 1015.6 988.8 +4.6 +11.8
09 22.08 З 2-5
{5}
40 км 6/6 300 м
[]
+14.5 +10.6 77 +14 +17 1015.7 989.1
12 22.08 З 2-4
{7}
35 км 4/0 2000 м
[]
+17.0 +8.9 59 +17 +22 1015.1 988.8
15 22.08 З 2-4
{9}
40 км слаб. ливневой дождь 9/6 1000 м
[]
+13.7 +9.4 75 +13 +14 1016.3 989.6
18 22.08 З 2-5
{5}
50 км {ливн. осадки, метель} ясно +12.7 +9.3 80 +12 +12 1017.3 990.5 +11.8 +17.7
21 22.08 З 2-4
{4}
50 км ясно +9.5 +7.8 89 +8 +8 1018.5 991.4
00 23.08 З 2-4
{5}
45 км ясно +7.8 +7.1 95 +6 +6 1018.9 991.6
03 23.08 З 1-2
{3}
18 км ясно +6.0 +5.8 99 +5 +5 1019.0 991.6
06 23.08 ЮВ 1-2
{3}
45 км 1/0
[]
+11.4 +8.9 85 +11 +14 1018.4 991.5 +5.4 +12.7
09 23.08 ЮВ 2-5
{5}
45 км 9/6 600 м
[]
+13.3 +8.4 72 +13 +14 1017.5 990.8
12 23.08 ЮВ 1-3
{6}
13 км слаб. дождь {морось} 9/9 200 м
[]
+11.9 +11.2 95 +12 +12 1016.6 989.8 0.1
15 23.08 ЮВ 2-5
{5}
3700 м ливневой дождь 9/9 50 м
[]
+11.9 +11.6 98 +11 +11 1014.7 987.9 0.3
18 23.08 Ю 1-3
{3}
18 км {ливн. осадки, дождь} 9/9 100 м
[]
+11.9 +11.7 99 +12 +12 1013.2 986.5 +11.4 +13.8 6
21 23.08 В 1-1
{2}
700 м туман 9/9 50 м
[]
+11.1 +11.0 99 +11 +11 1012.1 985.3
00 24.08 штиль 0-2
{2}
400 м туман {ливн. осадки, дождь} 4/4 600 м
[]
+9.9 +9.8 99 +9 +9 1011.8 984.8
03 24.08 СЗ 2-3
{3}
2300 м дымка {туман} ?/? +10.6 +10.5 99 +9 +9 1012.7 985.9
06 24.08 СЗ 2-4
{5}
45 км {туман, метель} 10/10 300 м
[]
+10.8 +9.9 94 +9 +9 1014.3 987.4 +9.8 +12.0
09 24.08 З 3-5
{6}
30 км 6/6 300 м
[]
+14.0 +11.8 87 +13 +15 1016.1 989.5
12 24.08 С 2-3
{5}
50 км слаб. ливневой дождь 6/4 300 м
[]
+14.1 +12.2 88 +14 +17 1018.3 991.6 0.2
15 24.08 СЗ 3-5
{7}
50 км слаб. ливневой дождь 9/9 600 м
[]
+13.2 +11.4 89 +12 +12 1020.9 994.1
18 24.08 СЗ 2-3
{3}
45 км {ливн. осадки, дождь} ясно +11.2 +10.5 95 +10 +10 1023.2 996.1 +10.8 +15.7 2
21 24.08 З 1-1
{2}
2800 м в посл. час туман ясно +6.1 +6.0 99 +5 +5 1025.1 997.5
00 25.08 З 1-1
{2}
200 м туман ?/? +4.3 +4.2 99 +3 +3 1026.3 998.4
03 25.08 штиль 0
{1}
1600 м в посл. час туман 4/0 <50 м
[]
+3.5 +3.5 100 +2 +2 1026.6 998.7
06 25.08 штиль 0-1
{1}
1800 м в посл. час туман ?/? +8.5 +8.5 100 +7 +7 1026.3 998.9 +2.9 +11.2
09 25.08 Ю 2-5
{5}
40 км 9/6
[]
+13.2 +10.9 86 +12 +14 1025.2 998.2
12 25.08 Ю 2-7
{8}
35 км 6/1 600 м
[]
+15.9 +10.4 70 +16 +20 1023.1 996.4
15 25.08 Ю 3-7
{7}
17 км слаб. дождь 10/10 1000 м
[]
+13.7 +10.0 78 +13 +13 1021.1 994.3 0.1

 

Местоположение метеостанции Суомуссалми (Финляндия): широта 64.93 долгота 28.75 высота над уровнем моря 223 м.

В архиве по умолчанию представлена погода в Суомуссалми за последнюю неделю. Архивные данные за месяц целиком и за предыдущие месяцы, начиная с января 2011 года, Вы можете получить, выбрав интересующий диапазон дат из раскрывающегося списка и нажав кнопку "Ввод!".


*Определитесь, кто Вы:
робот инопланетянин человек

Внимание! Время в таблицах - всемирное. Для получения местного времени необходимо прибавить поправку, которая равна 1 ч.

Смотрите также архив погоды в соседних городах и на ближайших метеорологических станциях:

Погода в Пуоланка Пальякка (Финляндия) (44 км)
Погода в Тайвалкоски (Финляндия) (75 км)
Погода в Каяни (Финляндия) (89 км)
Погода в Соткамо Куоланиеми (Финляндия) (93 км)
Погода в Кухмо Каллиёки (Финляндия) (97 км)
Погода в Пудасъярви (Финляндия) (99 км)
Погода в Каяни (Финляндия) (100 км)
Погода в Калевале (Карелия, Россия) (117 км)
Погода в Ваала Пэлсо (Финляндия) (121 км)
Погода в Аэропорту Куусамо (Финляндия) (121 км)

Пояснения к столбцам:

Ветер - указаны скорость ветра в м/с - средняя за 10 мин, порывы в срок и между сроками (в фигурных скобках) и направление, откуда дует ветер: С - северный, СВ - северо-восточный, В - восточный, ЮВ - юго-восточный, Ю - южный, ЮЗ - юго-западный, З - западный, СЗ - северо-западный.
Видимость - горизонтальная дальность видимости в метрах или километрах. При видимости от 1 до 10 км при отсутствии осадков обычно наблюдается дымка, при ухудшении видимости до 1 км и менее - туман. В сухую погоду видимость может ухудшаться дымом, пылью или мглою.
Явления - указаны атмосферные явления, наблюдавшиеся в срок или в последний час перед сроком; фигурными скобками обозначены явления, наблюдавшиеся между сроками (за 1-3 часа до срока); квадратными скобками обозначены град или гололедные отложения с указанием их диаметра в мм.
Облачность - указаны через наклонную черту общая и нижняя облачность в баллах и высота нижней границы облаков в метрах; квадратными скобками обозначены формы облаков: Ci - перистые, Cs - перисто-слоистые, Cc - перисто-кучевые, Ac - высококучевые, As - высокослоистые, Sc - слоисто-кучевые, Ns - слоисто-дождевые, Cu - кучевые, Cb - кучево-дождевые. Подробнее классификацию облаков см. в Атласе облаков (PDF).
T - Температура воздуха - температура, измеренная на высоте 2 м над землей.
Td - Температура точки росы - температура, при понижении до которой содержащийся в воздухе водяной пар достигнет насыщения.
f - Относительная влажность воздуха - влажноcть воздуха, измеренная на высоте 2 м над землей.
Te - Эффективная температура - температура, которую ощущает одетый по сезону человек в тени. Характеристика душности погоды. При расчете учитывается влияние влажности воздуха и скорости ветра на теплоощущения человека.
Tes - Эффективная температура на солнце - температура, которую ощущает человек, с поправкой на солнечный нагрев. Характеристика знойности погоды. Зависит от высоты солнца над горизонтом, облачности и скорости ветра. Ночью, в пасмурную погоду, а также при ветре 12 м/с и более поправка равна нулю.
P - Атмосферное давление - приведенное к уровню моря атмосферное давление.
Po - Атмосферное давление - измеренное на уровне метеостанции атмосферное давление.
Tmin - Минимальная температура - минимум температуры воздуха на высоте 2 м над землей.
Tmax - Максимальная температура - максимум температуры воздуха на высоте 2 м над землей.
R - Количество осадков - Количество выпавших осадков за период времени, мм. При наведении курсора мыши на число - период времени, за который выпало указанное количество осадков.
R24 - Количество осадков - Количество выпавших осадков за 24 часа, мм.
S - Снежный покров - Высота снежного покрова, см. При наведении курсора мыши на число - состояние снежного покрова и степень покрытия местности в баллах.